Weather History for KF46 - March, 2013

Change the Weather History Date:

Saturday, March 2, 2013

  Actual Average (KDFW) Record (KDFW)
Temperature  
Mean Temperature 41 °F 54 °F  
Max Temperature 52 °F 64 °F 90 °F (1901)
Min Temperature 30 °F 44 °F 15 °F (1980)
Degree Days  
Heating Degree Days 24 12  
Month to date heating degree days 24  
Since 1 July heating degree days 1956  
Cooling Degree Days 0 0  
Month to date cooling degree days 0  
Year to date cooling degree days 7  
Moisture  
Dew Point 23 °F    
Average Humidity 51    
Maximum Humidity 76    
Minimum Humidity 28    
Precipitation  
Precipitation 0.00 in 0.11 in 0.82 in (1979)
Month to date precipitation 0.22  
Year to date precipitation 5.01  
Snow  
Snow 0.00 in 0.00 in 1.60 in (1971)
Month to date snowfall 0.0  
Since 1 July snowfall 1.0  
Snow Depth -    
Sea Level Pressure  
Sea Level Pressure 30.31 in    
Wind  
Wind Speed 9 mph (North)    
Max Wind Speed 15 mph    
Max Gust Speed 22 mph    
Visibility 10 miles    
Events      
T = Trace of Precipitation, MM = Missing Value Source: NWS Daily Summary

Daily Weather History Graph

Daily Weather History Graph

Search for Another Location

Airport or City:

Trip Planner

Search our weather history database for the weather conditions in past years. The results will help you decide how hot, cold, wet, or windy it might be!

Date:

Astronomy

Mar. 02, 2013 Rise Set
Actual Time 6:52 AM CST 6:23 PM CST
Civil Twilight 6:27 AM CST 6:48 PM CST
Nautical Twilight 5:58 AM CST 7:17 PM CST
Astronomical Twilight 5:30 AM CST 7:45 PM CST
Moon 11:44 PM CST (3/2) 9:39 AM CST (3/2)
Length of Visible Light 12h 21m
Length of Day
11h 31m
Waning Gibbous, 74% of the Moon is Illuminated
Mar 2
Waning Gibbous
Mar 4
Last Quarter
Mar 11
New
Mar 19
First Quarter
Mar 27
Full

Hourly Weather History & Observations

Time (CST) Temp. Windchill Dew Point Humidity Pressure Visibility Wind Dir Wind Speed Gust Speed Precip Events Conditions
12:15 AM 36.7 °F 32.0 °F 28.2 °F 71% 30.29 in 10.0 mi North 5.8 mph - N/A   Clear
12:35 AM 36.7 °F 29.4 °F 27.3 °F 69% 30.29 in 10.0 mi North 10.4 mph - N/A   Clear
12:55 AM 36.5 °F 29.7 °F 26.6 °F 67% 30.30 in 10.0 mi North 9.2 mph - N/A   Clear
1:15 AM 36.3 °F 28.4 °F 25.7 °F 65% 30.30 in 10.0 mi North 11.5 mph 17.3 mph N/A   Clear
1:35 AM 35.6 °F 28.6 °F 25.7 °F 67% 30.31 in 10.0 mi North 9.2 mph - N/A   Clear
1:55 AM 35.6 °F 28.6 °F 25.7 °F 67% 30.31 in 10.0 mi North 9.2 mph - N/A   Clear
2:15 AM 34.7 °F 27.5 °F 26.4 °F 72% 30.30 in 10.0 mi NNW 9.2 mph - N/A   Clear
2:35 AM 34.2 °F 25.7 °F 26.6 °F 74% 30.30 in 10.0 mi NNW 11.5 mph - N/A   Clear
2:55 AM 33.8 °F 27.0 °F 26.6 °F 75% 30.30 in 10.0 mi North 8.1 mph - N/A   Clear
3:15 AM 33.8 °F 25.8 °F 26.1 °F 73% 30.30 in 10.0 mi North 10.4 mph 16.1 mph N/A   Clear
3:35 AM 33.4 °F 24.8 °F 25.9 °F 74% 30.30 in 10.0 mi North 11.5 mph 17.3 mph N/A   Clear
3:55 AM 33.1 °F 24.4 °F 25.5 °F 74% 30.30 in 10.0 mi North 11.5 mph 18.4 mph N/A   Clear
4:15 AM 32.9 °F 23.7 °F 24.8 °F 72% 30.31 in 10.0 mi North 12.7 mph - N/A   Clear
4:35 AM 32.4 °F 23.5 °F 24.6 °F 73% 30.31 in 10.0 mi North 11.5 mph 16.1 mph N/A   Clear
5:15 AM 32.0 °F 22.5 °F 24.1 °F 73% 30.32 in 10.0 mi North 12.7 mph 17.3 mph N/A   Clear
5:55 AM 31.5 °F 23.5 °F 23.9 °F 74% 30.34 in 10.0 mi North 9.2 mph - N/A   Clear
6:15 AM 30.7 °F 22.6 °F 23.9 °F 76% 30.35 in 10.0 mi North 9.2 mph - N/A   Clear
6:35 AM 30.6 °F 22.4 °F 23.9 °F 76% 30.36 in 10.0 mi North 9.2 mph - N/A   Clear
6:55 AM 30.7 °F 23.3 °F 22.6 °F 72% 30.37 in 10.0 mi North 8.1 mph 16.1 mph N/A   Clear
7:15 AM 30.9 °F 22.2 °F 21.4 °F 68% 30.37 in 10.0 mi North 10.4 mph - N/A   Clear
7:55 AM 32.0 °F 23.6 °F 21.9 °F 66% 30.40 in 10.0 mi North 10.4 mph - N/A   Clear
8:15 AM 32.9 °F 24.7 °F 21.0 °F 62% 30.41 in 10.0 mi North 10.4 mph - N/A   Clear
8:35 AM 33.4 °F 25.4 °F 20.3 °F 59% 30.42 in 10.0 mi North 10.4 mph 18.4 mph N/A   Clear
8:55 AM 34.3 °F 25.9 °F 19.8 °F 55% 30.42 in 10.0 mi NNE 11.5 mph 19.6 mph N/A   Clear
9:15 AM 35.1 °F 26.4 °F 20.1 °F 55% 30.42 in 10.0 mi North 12.7 mph 18.4 mph N/A   Clear
9:35 AM 36.0 °F 27.5 °F 20.5 °F 53% 30.42 in 10.0 mi North 12.7 mph 19.6 mph N/A   Clear
9:55 AM 36.5 °F 28.7 °F 20.1 °F 52% 30.42 in 10.0 mi North 11.5 mph 20.7 mph N/A   Clear
10:15 AM 37.0 °F 28.9 °F 20.5 °F 51% 30.41 in 10.0 mi North 12.7 mph 17.3 mph N/A   Clear
10:35 AM 38.8 °F 31.2 °F 20.3 °F 47% 30.41 in 10.0 mi North 12.7 mph 17.3 mph N/A   Clear
10:55 AM 40.3 °F 33.4 °F 20.8 °F 46% 30.40 in 10.0 mi NNE 11.5 mph 17.3 mph N/A   Clear
11:15 AM 40.8 °F 35.0 °F 20.7 °F 45% 30.40 in 10.0 mi North 9.2 mph 17.3 mph N/A   Clear
11:35 AM 42.6 °F 36.8 °F 20.3 °F 41% 30.39 in 10.0 mi North 10.4 mph 17.3 mph N/A   Clear
11:55 AM 43.5 °F 37.5 °F 19.9 °F 39% 30.38 in 10.0 mi NNW 11.5 mph 17.3 mph N/A   Clear
12:15 PM 45.3 °F 39.0 °F 19.8 °F 36% 30.36 in 10.0 mi North 13.8 mph 17.3 mph N/A   Clear
12:35 PM 45.1 °F 39.9 °F 19.8 °F 36% 30.35 in 10.0 mi North 10.4 mph 19.6 mph N/A   Clear
12:55 PM 46.2 °F 41.7 °F 18.9 °F 34% 30.35 in 10.0 mi North 9.2 mph 19.6 mph N/A   Clear
1:15 PM 47.5 °F - 18.7 °F 32% 30.33 in 10.0 mi North 12.7 mph 18.4 mph N/A   Clear
1:35 PM 48.2 °F - 18.9 °F 31% 30.32 in 10.0 mi North 12.7 mph 16.1 mph N/A   Clear
1:55 PM 49.5 °F - 19.0 °F 30% 30.31 in 10.0 mi NNW 15.0 mph 19.6 mph N/A   Clear
2:15 PM 50.5 °F - 19.8 °F 30% 30.30 in 10.0 mi NNW 12.7 mph 19.6 mph N/A   Clear
2:35 PM 50.5 °F - 19.9 °F 30% 30.29 in 10.0 mi North 12.7 mph 18.4 mph N/A   Clear
2:55 PM 51.8 °F - 20.7 °F 30% 30.28 in 10.0 mi North 10.4 mph 21.9 mph N/A   Clear
3:15 PM 51.8 °F - 20.1 °F 29% 30.28 in 10.0 mi North 11.5 mph 17.3 mph N/A   Clear
3:35 PM 52.2 °F - 20.1 °F 28% 30.28 in 10.0 mi North 9.2 mph - N/A   Clear
3:55 PM 52.2 °F - 20.7 °F 29% 30.27 in 10.0 mi North 8.1 mph - N/A   Clear
4:15 PM 52.0 °F - 20.8 °F 30% 30.27 in 10.0 mi North 10.4 mph - N/A   Clear
4:35 PM 52.0 °F - 21.4 °F 30% 30.27 in 10.0 mi North 8.1 mph - N/A   Clear
4:55 PM 52.2 °F - 21.9 °F 31% 30.27 in 10.0 mi North 6.9 mph - N/A   Clear
5:15 PM 51.8 °F - 21.9 °F 31% 30.27 in 10.0 mi NNW 5.8 mph - N/A   Clear
5:55 PM 50.9 °F - 22.8 °F 33% 30.27 in 10.0 mi North 5.8 mph - N/A   Clear
6:15 PM 49.3 °F - 23.7 °F 37% 30.27 in 10.0 mi North 4.6 mph - N/A   Clear
6:35 PM 48.2 °F - 24.4 °F 39% 30.27 in 10.0 mi NNE 3.5 mph - N/A   Clear
6:55 PM 48.0 °F - 24.6 °F 40% 30.27 in 10.0 mi Calm Calm - N/A   Clear
7:15 PM 46.8 °F - 24.3 °F 41% 30.26 in 10.0 mi Calm Calm - N/A   Clear
7:35 PM 43.5 °F - 25.0 °F 48% 30.26 in 10.0 mi Calm Calm - N/A   Clear
7:55 PM 42.3 °F - 25.2 °F 51% 30.26 in 10.0 mi Calm Calm - N/A   Clear
8:15 PM 43.7 °F - 23.9 °F 46% 30.26 in 10.0 mi Calm Calm - N/A   Clear
8:35 PM 41.9 °F - 24.8 °F 51% 30.26 in 10.0 mi Calm Calm - N/A   Clear
8:55 PM 42.6 °F 40.9 °F 23.9 °F 48% 30.26 in 10.0 mi SE 3.5 mph - N/A   Clear
9:15 PM 41.9 °F 39.0 °F 23.7 °F 49% 30.25 in 10.0 mi SE 4.6 mph - N/A   Clear
9:35 PM 41.7 °F 38.8 °F 23.4 °F 48% 30.25 in 10.0 mi SE 4.6 mph - N/A   Clear
9:55 PM 41.0 °F 39.0 °F 23.4 °F 50% 30.25 in 10.0 mi SSE 3.5 mph - N/A   Clear
10:15 PM 40.1 °F 36.9 °F 23.7 °F 52% 30.25 in 10.0 mi SE 4.6 mph - N/A   Clear
10:35 PM 42.1 °F - 22.1 °F 45% 30.25 in 10.0 mi Calm Calm - N/A   Clear
10:55 PM 40.1 °F 38.0 °F 23.0 °F 51% 30.25 in 10.0 mi SSE 3.5 mph - N/A   Clear
11:15 PM 40.5 °F 37.3 °F 22.6 °F 49% 30.24 in 10.0 mi South 4.6 mph - N/A   Clear
11:35 PM 40.1 °F 38.0 °F 22.5 °F 49% 30.24 in 10.0 mi SSE 3.5 mph - N/A   Clear
11:55 PM 40.3 °F 36.3 °F 22.5 °F 49% 30.23 in 10.0 mi SSE 5.8 mph - N/A   Clear